STARLINK-1357 (45565 NORAD) Tracking and Keplerian Element Data

This shows tracking and keplerian element data for the satellite.

Feedback or suggestion? Click here.




ElementValue
Catalog45565
NameSTARLINK-1357
Epoch Orbit178
Epoch Day145.58334491
Epoch Year2020
RAAN242.546
Inclination52.9979
Eccentricity0.0001348
Argument of Perigee78.4084
Mean Anonmoly92.6977
Mean Motion15.62791049
Decay Rate8.534E-05
L11 45565U 20025AL 20145.58334491 .00008534 00000-0 98787-4 0 9996
L22 45565 52.9979 242.5460 0001348 78.4084 92.6977 15.62791049 1788

Live tracking and technical data element details for STARLINK-1357 (NORAD 45565). STARLINK-1357 can be tracked NOW for your location showing map with azimuth and elevation plus other details from your city location.

Track the satellite on the map from your city or location and see movement details for azimuth, elevation, latitude, longitude, range, height, and movement on the map or in text.







IsCatalogInMostPopularTable: catalog: 45565, numindb: 8
Update: records affected: 1



GetName: 45565 STARLINK-1357

Hit Count: updated at: Tue, 26 May 2020 02:38:18 GMT